Temp
17 17 18 19 19 20 20 20 20 21 21 20 20 19 19 19 20 20 19 19 19 19 19 19 19 19 19 19 19 19 19 19 19 19 19 19 18 18 18 18 18 17 17
18 18 18 19 19 20 20 20 20 21 21 20 20 20 20 19 19 20 20 19 19 19 19 19 19 19 19 19 19 19 19 19 19 19 19 19 19 19 19 18 18 18 18
18 18 18 18 19 20 20 20 20 21 21 20 20 20 19 19 19 19 20 20 19 19 19 19 19 19 19 19 19 19 19 19 19 19 19 19 19 19 19 19 18 18 18
19 18 19 19 19 20 20 20 20 21 20 20 20 20 20 20 19 19 20 20 20 19 19 19 19 19 19 19 19 19 19 19 19 19 19 19 20 19 19 19 19 18 18
19 19 20 20 19 20 20 20 20 20 21 20 20 20 20 20 20 19 19 20 19 19 19 19 19 19 19 19 19 18 19 19 19 19 19 19 20 20 20 20 19 19 19
19 19 20 19 20 19 20 20 20 21 21 21 20 20 20 20 20 20 20 20 20 20 19 19 19 19 19 19 19 19 19 19 19 19 19 19 20 20 20 20 20 20 20
20 20 20 19 20 20 20 21 21 20 21 21 21 21 21 21 20 20 21 21 20 20 20 19 19 19 19 19 19 19 19 19 19 19 20 20 19 19 19 19 20 20 20
20 20 20 21 21 21 20 21 21 21 21 22 22 21 21 21 21 21 21 21 21 21 20 20 19 19 19 19 19 19 19 19 19 19 19 19 19 19 19 19 20 20 20
22 21 21 21 21 22 22 22 22 22 22 22 22 22 22 21 21 21 21 21 21 21 20 20 20 20 19 19 19 19 19 19 19 19 19 19 19 19 19 20 19 19 19
23 22 22 21 22 23 23 23 22 23 23 23 22 22 22 22 21 21 21 21 21 21 20 20 20 20 20 19 19 19 19 19 19 19 19 20 19 19 19 20 19 19 19
23 23 23 24 23 22 23 23 23 23 23 23 23 22 22 22 22 21 21 21 21 21 21 20 20 20 20 20 19 19 19 19 20 20 20 20 20 20 20 19 19 20 20
25 25 24 23 23 23 23 23 24 23 23 23 23 23 23 23 22 22 22 21 21 21 21 20 20 20 20 20 20 20 20 20 20 20 20 20 20 21 21 20 20 20 20
25 24 23 23 23 23 23 23 24 24 24 23 23 23 23 23 23 22 22 22 21 21 21 21 20 20 20 20 20 20 20 20 20 20 20 20 20 21 21 21 21 21 21
28 27 24 23 23 23 25 25 24 24 24 23 23 23 24 24 23 23 22 22 22 21 21 21 21 21 21 21 20 20 20 20 20 20 20 20 20 21 21 22 22 21 21
27 28 27 25 24 23 24 24 23 24 24 23 23 24 24 24 24 23 23 23 22 22 21 22 22 21 21 21 21 21 21 20 20 21 21 21 21 21 21 21 22 22 21
23 25 28 26 24 24 25 26 25 24 24 24 24 24 24 24 24 24 23 23 23 22 22 22 22 22 22 22 22 21 21 22 21 21 21 22 22 22 22 22 21 21 21
23 25 26 26 25 24 24 26 27 25 25 26 26 24 23 24 24 24 24 23 23 23 22 22 22 23 23 23 23 22 22 22 22 22 22 22 22 22 22 22 22 22 21
22 25 25 26 26 25 25 25 25 26 26 26 25 25 25 25 24 24 24 24 23 23 23 23 23 23 24 24 23 23 22 22 22 22 22 22 22 22 22 22 22 22 21
21 25 26 25 24 25 24 25 25 25 26 26 27 26 26 25 25 25 24 24 24 24 24 24 23 23 24 24 24 23 23 22 23 23 23 23 23 22 22 21 21 22 22
20 25 26 26 25 24 24 25 25 26 27 27 28 26 26 26 26 26 26 25 25 24 24 23 23 24 24 23 23 23 22 22 22 23 23 23 22 22 21 21 20 20 20
19 23 25 26 25 25 25 25 25 27 27 26 26 26 26 26 26 26 25 25 24 24 24 24 24 23 23 24 23 23 22 22 22 22 22 22 22 21 20 20 19 19 19
19 21 23 25 25 25 25 25 25 25 25 26 26 26 26 26 25 25 25 24 24 24 23 23 24 24 24 24 24 23 23 22 22 22 22 21 21 20 20 20 19 19 19
17 18 19 21 24 23 24 24 24 24 25 24 24 24 25 25 25 25 25 24 24 24 24 24 24 24 24 24 24 23 23 22 21 21 21 21 20 20 20 20 20 19 19
16 17 18 18 19 20 21 22 22 23 24 24 24 24 24 24 23 23 23 23 24 24 24 24 25 25 24 24 24 23 22 21 21 20 21 21 21 20 20 20 20 20 20
17 17 17 17 18 19 20 21 22 22 23 24 24 24 24 23 24 23 23 24 23 24 25 25 25 24 24 24 22 21 21 20 21 20 20 20 20 20 20 20 20 20 20
17 17 17 17 17 18 19 20 21 22 22 23 23 24 24 25 25 24 24 24 24 25 24 23 24 22 22 22 21 21 21 20 21 20 21 21 20 20 20 20 20 19 19
Height
1515 1521 1524 1529 1534 1539 1542 1547 1552 1558 1562 1566 1570 1574 1578 1581 1584 1587 1589 1592 1593 1595 1596 1598 1599 1600 1602 1603 1604 1605 1606 1607 1608 1610 1611 1611 1612 1612 1612 1612 1612 1613 1612
1511 1516 1520 1525 1529 1534 1538 1543 1548 1554 1559 1564 1568 1572 1576 1580 1583 1586 1588 1590 1592 1594 1596 1597 1599 1601 1602 1604 1604 1605 1606 1607 1608 1610 1611 1611 1613 1612 1612 1612 1613 1614 1614
1505 1510 1515 1519 1524 1528 1533 1539 1544 1550 1556 1561 1565 1569 1574 1578 1580 1583 1586 1589 1591 1593 1595 1597 1599 1600 1601 1603 1603 1604 1606 1607 1608 1609 1611 1611 1612 1612 1612 1613 1613 1614 1614
1500 1504 1509 1513 1517 1522 1530 1536 1541 1546 1552 1558 1562 1566 1570 1573 1576 1580 1584 1587 1590 1592 1594 1595 1597 1599 1601 1602 1603 1603 1605 1606 1607 1609 1610 1611 1611 1612 1612 1613 1613 1613 1614
1491 1495 1498 1504 1513 1519 1524 1531 1537 1543 1548 1553 1558 1563 1566 1570 1574 1578 1581 1584 1587 1590 1592 1594 1596 1597 1599 1601 1602 1603 1604 1605 1606 1608 1609 1611 1611 1612 1612 1612 1612 1612 1613
1483 1490 1495 1504 1508 1515 1520 1526 1531 1536 1542 1547 1553 1557 1561 1566 1570 1574 1577 1581 1584 1587 1590 1592 1594 1596 1597 1600 1601 1601 1602 1604 1605 1607 1608 1610 1611 1611 1611 1612 1612 1611 1612
1476 1481 1487 1494 1500 1506 1511 1518 1524 1529 1535 1541 1547 1551 1556 1561 1565 1569 1572 1576 1579 1582 1586 1589 1592 1594 1595 1597 1599 1600 1601 1602 1604 1605 1607 1609 1610 1611 1611 1611 1611 1611 1611
1470 1476 1482 1486 1491 1497 1504 1510 1515 1522 1528 1534 1539 1545 1551 1555 1560 1564 1568 1571 1575 1578 1583 1586 1589 1591 1593 1595 1597 1598 1599 1600 1601 1603 1605 1607 1608 1609 1610 1610 1611 1610 1610
1459 1465 1473 1479 1486 1490 1494 1500 1508 1515 1521 1526 1533 1539 1544 1549 1554 1559 1564 1567 1571 1575 1580 1583 1585 1588 1591 1592 1594 1595 1597 1598 1599 1601 1603 1605 1606 1607 1608 1608 1609 1610 1609
1451 1457 1463 1469 1473 1480 1487 1494 1501 1507 1513 1520 1526 1532 1538 1543 1549 1554 1559 1563 1567 1572 1576 1579 1582 1584 1587 1589 1591 1593 1595 1595 1596 1597 1599 1601 1604 1605 1605 1606 1607 1607 1607
1441 1444 1449 1455 1461 1474 1480 1485 1492 1499 1506 1513 1519 1525 1531 1537 1543 1547 1554 1558 1563 1567 1571 1575 1578 1580 1582 1585 1587 1589 1591 1592 1593 1594 1596 1598 1600 1601 1602 1603 1604 1605 1604
1429 1433 1438 1447 1455 1459 1468 1475 1482 1489 1497 1504 1512 1518 1525 1531 1536 1541 1547 1553 1557 1562 1566 1569 1573 1575 1577 1579 1582 1585 1587 1589 1590 1591 1592 1594 1596 1597 1598 1599 1599 1600 1600
1425 1429 1438 1443 1446 1451 1458 1465 1473 1480 1489 1496 1504 1511 1517 1523 1528 1534 1540 1546 1551 1555 1559 1563 1566 1569 1572 1574 1577 1580 1582 1584 1586 1587 1589 1590 1591 1592 1593 1594 1594 1595 1595
1418 1420 1426 1430 1438 1442 1448 1456 1464 1473 1481 1489 1495 1502 1509 1515 1521 1528 1533 1539 1544 1549 1552 1555 1559 1562 1566 1569 1572 1574 1577 1579 1580 1582 1583 1584 1585 1586 1587 1588 1588 1589 1589
1411 1412 1414 1419 1427 1437 1441 1449 1457 1466 1473 1480 1487 1493 1501 1508 1515 1521 1526 1531 1536 1540 1545 1548 1551 1555 1559 1562 1565 1568 1571 1573 1574 1575 1576 1578 1579 1581 1582 1582 1582 1582 1582
1398 1401 1402 1407 1417 1426 1431 1437 1447 1456 1465 1472 1478 1487 1493 1500 1506 1512 1517 1523 1527 1532 1536 1539 1543 1547 1550 1554 1558 1562 1564 1566 1567 1567 1569 1571 1573 1574 1575 1576 1576 1576 1574
1384 1387 1390 1398 1405 1414 1422 1429 1437 1448 1458 1466 1472 1478 1485 1492 1498 1505 1509 1514 1518 1523 1527 1531 1535 1538 1541 1546 1550 1554 1556 1558 1559 1560 1561 1562 1564 1566 1567 1568 1568 1566 1565
1379 1380 1386 1391 1398 1407 1416 1426 1433 1442 1451 1458 1464 1471 1478 1485 1491 1497 1501 1506 1511 1515 1519 1523 1526 1530 1532 1537 1541 1545 1548 1549 1550 1551 1553 1554 1555 1556 1558 1559 1556 1553 1554
1377 1378 1384 1391 1397 1405 1415 1422 1430 1437 1445 1451 1458 1464 1471 1478 1485 1489 1494 1500 1504 1508 1511 1515 1519 1521 1525 1529 1533 1537 1538 1539 1539 1541 1542 1544 1545 1547 1550 1549 1546 1544 1542
1373 1376 1383 1390 1399 1406 1414 1419 1425 1432 1437 1445 1451 1458 1465 1472 1476 1482 1488 1493 1497 1501 1505 1508 1511 1514 1517 1521 1524 1527 1529 1528 1529 1532 1531 1533 1534 1537 1539 1538 1537 1532 1532
1377 1380 1386 1391 1397 1405 1412 1417 1423 1426 1433 1443 1449 1455 1461 1465 1471 1476 1481 1485 1489 1494 1497 1500 1504 1506 1509 1513 1516 1519 1519 1519 1520 1520 1522 1523 1526 1528 1529 1528 1527 1524 1527
1385 1385 1390 1393 1397 1403 1409 1414 1420 1428 1434 1440 1445 1450 1455 1459 1464 1468 1473 1478 1482 1486 1490 1493 1495 1498 1501 1504 1507 1510 1511 1513 1512 1512 1514 1516 1518 1519 1519 1519 1519 1520 1520
1400 1398 1396 1398 1400 1404 1409 1415 1420 1426 1432 1436 1440 1446 1451 1454 1457 1462 1466 1470 1474 1478 1481 1484 1487 1490 1493 1496 1499 1501 1502 1504 1504 1505 1507 1509 1510 1511 1511 1512 1512 1512 1511
1408 1407 1406 1407 1409 1411 1414 1417 1422 1426 1430 1433 1437 1440 1445 1448 1452 1455 1459 1463 1466 1469 1473 1475 1478 1482 1485 1487 1490 1492 1494 1496 1496 1498 1501 1502 1503 1504 1504 1504 1504 1504 1502
1417 1416 1415 1415 1417 1418 1419 1421 1423 1425 1428 1431 1434 1436 1439 1442 1447 1449 1453 1456 1460 1463 1466 1468 1471 1475 1477 1480 1483 1484 1486 1489 1491 1493 1493 1494 1496 1496 1496 1496 1496 1495 1495
1423 1421 1421 1421 1422 1423 1423 1423 1424 1426 1429 1431 1432 1434 1436 1439 1441 1444 1447 1450 1453 1456 1459 1463 1465 1468 1471 1473 1475 1477 1479 1482 1484 1484 1485 1487 1488 1489 1489 1490 1490 1489 1488
Wind_Speed
36 38 41 40 38 36 34 32 32 31 31 31 29 26 22 17 15 15 14 13 9 7 7 5 6 7 7 6 7 7 3 7 7 5 2 2 2 3 2 2 2 3 3
35 38 43 42 41 38 38 35 32 34 33 34 31 29 24 20 16 13 13 14 11 8 7 5 5 7 7 4 6 7 6 7 8 8 5 2 2 3 6 4 3 2 2
37 40 43 46 44 42 40 37 34 36 34 34 33 30 27 23 21 19 16 13 13 11 9 7 7 8 6 6 5 6 8 9 8 10 8 4 3 3 6 7 5 6 2
37 40 45 47 48 46 42 39 37 37 35 33 33 31 30 29 27 24 21 17 13 13 11 10 7 8 7 7 6 5 7 10 9 10 10 8 4 4 4 9 7 7 4
42 42 49 54 50 48 46 43 40 39 38 37 36 34 32 30 28 27 25 23 19 15 13 12 10 8 10 9 8 7 9 9 10 12 9 8 7 7 5 2 5 7 8
41 43 45 42 50 48 49 48 45 42 41 39 38 39 36 33 30 30 31 28 26 22 18 15 14 11 10 11 9 9 9 11 12 13 10 9 10 11 10 7 6 5 5
41 45 44 45 48 48 51 49 50 47 44 43 41 39 40 37 31 27 29 32 31 29 25 20 17 14 11 11 11 11 10 13 13 15 16 15 12 10 9 13 10 8 8
37 41 44 48 53 52 51 51 51 52 47 44 41 39 39 40 35 30 25 28 29 28 22 21 18 15 12 12 12 13 13 11 16 15 13 15 15 15 13 11 11 11 10
40 42 46 48 52 54 54 54 51 50 51 48 43 42 40 41 40 34 28 25 27 26 24 19 18 17 15 13 14 15 15 15 14 15 15 15 15 14 14 15 13 12 14
38 41 45 47 51 55 56 54 52 50 50 49 47 45 43 41 41 38 32 28 27 27 26 23 20 19 18 17 17 17 16 17 17 15 16 16 16 15 15 15 15 15 16
42 46 50 52 52 50 51 55 54 53 52 51 49 48 46 44 43 42 36 31 28 27 28 24 22 21 21 21 22 21 19 19 19 19 18 17 17 19 20 20 21 20 20
46 50 52 48 48 50 50 52 53 54 52 51 49 48 46 45 45 44 39 33 30 29 29 27 26 26 24 23 23 22 21 20 20 19 21 21 20 21 21 23 25 25 25
35 39 39 42 49 52 51 50 51 52 52 51 49 47 47 46 46 45 41 36 32 31 30 30 30 29 28 27 25 24 24 23 23 22 21 21 22 25 25 25 26 26 26
27 34 42 44 48 53 54 50 50 50 50 49 48 47 46 45 42 41 41 38 35 31 32 33 32 32 30 30 28 27 26 26 27 26 27 26 25 24 25 28 30 30 31
35 39 42 46 48 48 52 49 49 48 48 47 47 46 45 43 41 41 39 39 37 34 32 34 35 34 34 33 32 30 29 28 27 26 26 27 26 24 23 25 26 27 30
29 33 42 46 49 53 56 54 51 49 46 43 43 43 43 43 42 40 39 38 37 36 35 36 36 37 37 36 34 33 33 33 32 32 31 30 29 28 27 28 29 31 33
26 29 47 49 51 54 56 55 54 48 44 39 38 39 41 42 41 39 39 38 38 36 36 36 37 38 39 37 36 36 36 36 36 35 35 34 34 33 33 33 34 37 39
17 28 40 48 52 52 52 50 51 48 42 39 41 40 40 39 40 40 40 38 37 37 36 36 35 36 38 38 37 37 38 41 42 41 40 40 40 40 39 39 41 43 43
10 22 34 38 43 47 47 47 45 44 42 41 38 37 37 37 37 38 37 37 36 35 36 35 34 35 34 34 35 36 40 42 44 44 44 44 44 43 42 42 43 42 42
4 13 25 29 33 37 39 41 41 41 42 38 37 36 35 35 35 33 34 33 33 33 34 34 34 33 31 29 29 30 34 39 40 40 41 41 40 38 36 37 37 41 40
12 12 21 25 26 29 31 34 36 39 37 34 33 30 30 30 29 29 30 32 31 30 29 28 27 27 25 23 22 24 28 30 32 34 34 34 31 29 28 29 30 32 28
24 17 16 23 25 25 26 30 29 29 29 28 27 27 27 28 29 28 27 27 27 27 27 27 26 26 25 24 23 23 26 26 30 31 31 29 26 25 24 24 26 26 26
30 30 30 15 22 27 25 24 26 27 27 27 25 23 22 24 26 26 26 26 26 27 27 28 28 27 25 23 22 21 22 23 27 27 24 21 20 20 22 22 23 24 28
30 26 26 29 29 21 19 18 16 15 17 20 21 20 20 20 21 22 23 25 25 26 26 26 26 24 22 20 18 18 19 20 22 21 19 22 22 23 23 23 26 30 31
26 23 21 20 20 19 18 16 14 14 13 12 11 11 13 18 21 24 24 24 25 23 25 25 23 23 22 15 12 13 15 16 16 19 22 23 24 25 26 25 22 21 24
26 24 19 16 15 13 13 11 9 5 6 8 9 10 10 12 14 18 22 23 24 24 25 26 23 19 17 14 14 15 15 15 17 19 21 21 22 21 20 20 22 26 28
Wind_Direction
201 203 208 208 204 205 201 199 200 197 195 192 196 199 202 197 200 203 200 200 186 172 187 192 193 180 157 163 162 168 170 181 164 166 135 201 182 185 173 144 93 69 64
200 203 207 212 209 206 205 203 206 201 200 200 202 207 206 205 208 214 207 203 202 195 192 203 211 205 203 197 205 201 203 179 185 191 185 170 201 244 203 218 211 196 122
201 203 208 211 213 211 209 206 206 203 201 202 206 212 212 214 218 220 217 211 206 213 218 218 231 235 222 230 214 214 203 207 210 205 210 215 236 229 202 216 230 230 216
206 207 209 212 214 216 214 212 208 207 205 208 211 215 217 218 222 228 232 231 224 220 222 231 244 239 231 227 231 217 210 218 229 202 206 228 244 209 204 222 235 236 230
207 208 214 215 215 219 220 219 216 215 214 217 220 222 223 226 230 231 233 234 237 235 230 231 242 240 234 235 240 232 222 225 216 207 214 225 241 238 252 278 260 265 252
210 213 217 215 217 218 223 224 221 220 220 221 224 228 229 230 232 233 234 236 239 241 238 234 235 242 238 232 238 239 230 216 215 215 231 243 254 245 249 270 307 283 283
210 212 213 212 217 218 223 223 223 223 222 225 229 230 231 231 234 236 237 235 239 242 240 237 234 236 241 234 241 239 233 224 225 230 240 247 248 258 264 259 282 283 294
211 214 215 216 217 218 220 223 224 225 223 225 228 231 232 233 233 236 238 237 240 239 236 230 232 233 238 239 241 237 233 234 229 234 241 238 249 252 259 265 271 281 281
209 213 219 219 220 219 221 222 223 224 225 224 226 230 232 233 233 235 237 239 239 235 230 228 228 230 236 242 243 243 238 237 240 244 245 241 240 250 259 252 263 264 278
213 209 212 215 224 223 222 226 225 225 225 226 227 229 232 234 235 236 237 238 237 234 230 229 226 229 234 239 246 248 242 242 243 248 250 251 243 247 250 252 261 269 277
210 212 211 221 223 222 223 226 228 228 228 228 229 231 234 236 236 237 238 239 238 236 230 226 225 230 234 240 246 248 245 244 245 248 252 255 255 252 253 255 260 266 273
215 221 220 210 211 220 221 223 227 230 232 231 231 232 234 237 238 238 239 238 239 235 234 231 229 231 232 239 245 243 242 243 246 249 254 255 256 258 259 262 264 267 270
221 222 216 208 210 218 221 223 226 228 231 231 231 231 233 235 238 239 238 239 238 235 235 234 233 230 230 232 236 241 245 247 252 254 256 260 261 261 261 263 266 267 269
241 237 225 214 211 213 221 223 225 227 230 230 231 231 232 235 236 238 239 239 238 237 233 233 233 231 229 232 234 238 242 250 253 256 258 259 259 262 263 264 265 268 270
240 238 234 221 210 206 216 222 224 225 227 227 231 233 234 237 238 238 239 241 239 237 235 235 234 234 232 232 234 235 237 242 249 255 256 255 255 258 262 266 268 270 271
258 242 235 222 205 205 212 221 222 222 223 226 230 234 235 237 238 238 238 239 239 237 235 234 234 236 237 236 234 236 239 243 247 252 255 257 260 259 261 264 268 274 276
276 244 217 211 207 208 210 216 222 221 221 226 232 233 234 234 234 234 236 235 235 236 236 236 235 236 239 240 240 240 242 246 249 252 256 258 259 262 265 269 271 271 272
270 216 199 202 209 207 210 211 216 220 221 224 227 230 231 231 232 233 235 234 234 235 237 238 238 239 240 242 243 245 246 249 252 254 257 260 263 266 269 273 275 275 276
263 202 200 201 198 202 204 209 212 218 221 223 227 226 227 230 232 234 236 236 237 237 239 242 243 244 244 245 245 246 249 251 253 256 259 261 263 265 268 272 274 275 275
62 177 202 201 202 201 206 208 212 217 222 223 226 225 227 230 232 235 237 238 240 241 244 246 248 250 251 250 250 249 250 253 255 258 260 263 265 269 271 271 274 275 279
67 149 179 195 200 205 209 214 216 222 226 227 229 230 231 232 234 236 238 239 240 243 244 245 247 249 250 248 246 246 249 254 259 260 262 265 269 271 272 273 273 277 290
76 108 155 183 193 198 207 214 221 228 230 231 230 228 232 234 234 235 238 239 242 244 246 249 251 253 255 256 256 253 253 254 258 261 267 272 277 279 277 275 275 277 282
61 79 86 118 176 188 199 204 210 215 218 224 231 230 232 238 241 241 241 242 244 245 248 251 253 257 261 262 262 259 257 255 258 263 269 274 275 273 274 274 279 280 280
42 56 76 81 89 126 158 167 180 199 215 223 229 230 227 228 234 238 240 240 240 244 247 249 253 256 258 261 264 261 255 249 247 251 255 262 267 273 274 276 281 284 286
37 43 53 64 74 86 101 113 131 140 151 160 176 199 218 223 225 231 234 241 242 239 244 248 256 258 259 266 265 258 253 248 246 255 257 258 263 270 274 278 277 278 285
28 35 41 52 59 67 73 82 93 128 178 190 190 196 204 213 216 223 228 229 232 239 242 244 244 251 254 248 248 251 250 245 243 247 252 258 261 261 264 267 274 278 283